Time,TemperatureF,DewpointF,PressureIn,WindDirection,WindDirectionDegrees,WindSpeedMPH,WindSpeedGustMPH,Humidity,HourlyPrecipIn,Conditions,Clouds,dailyrainin,SoftwareType,DateUTC
2013-02-21 00:00:00,24.8,12.8,30.19,North,355,1.4,11.8,59,0.00,,,0.00,WX3IN1Plus v1.30,2013-02-21 05:00:00,
2013-02-21 00:05:00,24.7,12.8,30.19,North,357,0.7,7.8,59,0.00,,,0.00,WX3IN1Plus v1.30,2013-02-21 05:05:00,
2013-02-21 00:10:00,24.8,12.8,30.19,SW,216,1.6,8.7,59,0.00,,,0.00,WX3IN1Plus v1.30,2013-02-21 05:10:00,
2013-02-21 00:15:00,24.5,13.0,30.19,NNW,347,6.8,14.2,60,0.00,,,0.00,WX3IN1Plus v1.30,2013-02-21 05:15:00,
2013-02-21 00:20:00,24.6,13.0,30.19,NNE,29,0.0,9.4,60,0.00,,,0.00,WX3IN1Plus v1.30,2013-02-21 05:20:00,
2013-02-21 00:25:00,24.6,13.0,30.19,NNW,341,0.0,5.9,60,0.00,,,0.00,WX3IN1Plus v1.30,2013-02-21 05:25:00,
2013-02-21 00:30:00,24.4,12.8,30.18,WNW,302,3.3,8.5,60,0.00,,,0.00,WX3IN1Plus v1.30,2013-02-21 05:30:00,
2013-02-21 00:35:00,24.4,12.8,30.18,NE,40,0.0,7.6,60,0.00,,,0.00,WX3IN1Plus v1.30,2013-02-21 05:35:00,
2013-02-21 00:40:00,24.5,13.0,30.18,North,352,4.8,5.5,60,0.00,,,0.00,WX3IN1Plus v1.30,2013-02-21 05:40:00,
2013-02-21 00:45:00,24.5,13.0,30.18,NW,313,6.2,6.2,60,0.00,,,0.00,WX3IN1Plus v1.30,2013-02-21 05:45:00,
2013-02-21 00:50:00,24.3,12.8,30.18,NNW,337,0.0,8.2,60,0.00,,,0.00,WX3IN1Plus v1.30,2013-02-21 05:50:00,
2013-02-21 00:55:00,24.5,13.3,30.18,NW,305,0.0,5.5,61,0.00,,,0.00,WX3IN1Plus v1.30,2013-02-21 05:55:00,
2013-02-21 01:00:00,24.2,13.1,30.18,NNW,344,3.2,7.9,61,0.00,,,0.00,WX3IN1Plus v1.30,2013-02-21 06:00:00,
2013-02-21 01:05:00,24.3,13.1,30.18,NNW,331,0.8,7.0,61,0.00,,,0.00,WX3IN1Plus v1.30,2013-02-21 06:05:00,
2013-02-21 01:10:00,24.3,13.1,30.18,NNW,345,4.6,7.3,61,0.00,,,0.00,WX3IN1Plus v1.30,2013-02-21 06:10:00,
2013-02-21 01:15:00,24.4,13.1,30.18,NW,315,0.0,8.2,61,0.00,,,0.00,WX3IN1Plus v1.30,2013-02-21 06:15:00,
2013-02-21 01:20:00,24.3,13.1,30.18,NNE,19,1.8,4.2,61,0.00,,,0.00,WX3IN1Plus v1.30,2013-02-21 06:20:00,
2013-02-21 01:25:00,24.4,13.1,30.18,NNW,345,2.9,8.8,61,0.00,,,0.00,WX3IN1Plus v1.30,2013-02-21 06:25:00,
2013-02-21 01:30:00,24.2,13.1,30.19,WNW,284,0.0,5.7,61,0.00,,,0.00,WX3IN1Plus v1.30,2013-02-21 06:30:00,
2013-02-21 01:35:00,24.3,13.3,30.18,WNW,285,2.7,5.2,62,0.00,,,0.00,WX3IN1Plus v1.30,2013-02-21 06:35:00,
2013-02-21 01:40:00,24.3,13.3,30.18,NW,315,2.6,6.4,62,0.00,,,0.00,WX3IN1Plus v1.30,2013-02-21 06:40:00,
2013-02-21 01:45:00,24.1,13.3,30.18,NE,37,0.0,6.4,62,0.00,,,0.00,WX3IN1Plus v1.30,2013-02-21 06:45:00,
2013-02-21 01:50:00,24.0,13.1,30.18,North,358,2.9,4.9,62,0.00,,,0.00,WX3IN1Plus v1.30,2013-02-21 06:50:00,
2013-02-21 01:55:00,24.0,13.1,30.18,NW,320,3.6,6.1,62,0.00,,,0.00,WX3IN1Plus v1.30,2013-02-21 06:55:00,
2013-02-21 02:00:00,24.1,13.3,30.19,NW,309,2.4,6.6,62,0.00,,,0.00,WX3IN1Plus v1.30,2013-02-21 07:00:00,
2013-02-21 02:05:00,24.2,13.3,30.18,North,355,1.8,10.3,62,0.00,,,0.00,WX3IN1Plus v1.30,2013-02-21 07:05:00,
2013-02-21 02:10:00,24.0,13.1,30.18,NNW,348,0.0,8.9,62,0.00,,,0.00,WX3IN1Plus v1.30,2013-02-21 07:10:00,
2013-02-21 02:15:00,24.0,13.1,30.18,WNW,282,1.2,6.4,62,0.00,,,0.00,WX3IN1Plus v1.30,2013-02-21 07:15:00,
2013-02-21 02:20:00,24.1,13.3,30.18,NNW,336,0.0,4.6,62,0.00,,,0.00,WX3IN1Plus v1.30,2013-02-21 07:20:00,
2013-02-21 02:25:00,23.9,13.3,30.18,NNW,336,0.0,0.0,63,0.00,,,0.00,WX3IN1Plus v1.30,2013-02-21 07:25:00,
2013-02-21 02:30:00,23.8,13.3,30.18,NNW,345,3.7,6.7,63,0.00,,,0.00,WX3IN1Plus v1.30,2013-02-21 07:30:00,
2013-02-21 02:35:00,23.9,13.3,30.19,NW,310,1.2,4.5,63,0.00,,,0.00,WX3IN1Plus v1.30,2013-02-21 07:35:00,
2013-02-21 02:40:00,23.8,13.3,30.18,WNW,288,0.0,7.1,63,0.00,,,0.00,WX3IN1Plus v1.30,2013-02-21 07:40:00,
2013-02-21 02:45:00,23.8,13.3,30.19,WNW,284,3.2,4.5,63,0.00,,,0.00,WX3IN1Plus v1.30,2013-02-21 07:45:00,
2013-02-21 02:50:00,23.7,13.1,30.19,SW,232,0.0,3.5,63,0.00,,,0.00,WX3IN1Plus v1.30,2013-02-21 07:50:00,
2013-02-21 02:55:00,23.6,13.1,30.19,NNW,338,0.0,3.5,63,0.00,,,0.00,WX3IN1Plus v1.30,2013-02-21 07:55:00,
2013-02-21 03:00:00,23.6,13.3,30.19,WSW,248,0.0,2.0,64,0.00,,,0.00,WX3IN1Plus v1.30,2013-02-21 08:00:00,
2013-02-21 03:05:00,23.4,13.3,30.19,West,267,1.3,5.6,64,0.00,,,0.00,WX3IN1Plus v1.30,2013-02-21 08:05:00,
2013-02-21 03:10:00,23.4,13.3,30.19,West,278,5.4,6.8,64,0.00,,,0.00,WX3IN1Plus v1.30,2013-02-21 08:10:00,
2013-02-21 03:15:00,23.4,13.3,30.18,WNW,299,0.0,11.3,64,0.00,,,0.00,WX3IN1Plus v1.30,2013-02-21 08:15:00,
2013-02-21 03:20:00,23.4,13.1,30.18,WNW,303,1.5,9.8,63,0.00,,,0.00,WX3IN1Plus v1.30,2013-02-21 08:20:00,
2013-02-21 03:25:00,23.6,13.1,30.19,NNW,334,2.2,7.4,63,0.00,,,0.00,WX3IN1Plus v1.30,2013-02-21 08:25:00,
2013-02-21 03:30:00,23.8,13.3,30.18,North,354,0.0,7.3,63,0.00,,,0.00,WX3IN1Plus v1.30,2013-02-21 08:30:00,
2013-02-21 03:35:00,23.6,13.1,30.19,WNW,293,1.6,5.7,63,0.00,,,0.00,WX3IN1Plus v1.30,2013-02-21 08:35:00,
2013-02-21 03:40:00,23.6,13.1,30.18,NW,315,3.2,7.6,63,0.00,,,0.00,WX3IN1Plus v1.30,2013-02-21 08:40:00,
2013-02-21 03:45:00,23.6,13.1,30.19,North,354,3.3,8.0,63,0.00,,,0.00,WX3IN1Plus v1.30,2013-02-21 08:45:00,
2013-02-21 03:50:00,23.6,13.1,30.18,WNW,284,2.3,10.3,63,0.00,,,0.00,WX3IN1Plus v1.30,2013-02-21 08:50:00,
2013-02-21 03:55:00,23.6,13.1,30.18,NNW,331,2.2,10.0,63,0.00,,,0.00,WX3IN1Plus v1.30,2013-02-21 08:55:00,
2013-02-21 04:00:00,23.5,13.1,30.18,NNW,348,3.2,7.7,63,0.00,,,0.00,WX3IN1Plus v1.30,2013-02-21 09:00:00,
2013-02-21 04:05:00,23.7,13.1,30.18,North,357,8.3,10.0,63,0.00,,,0.00,WX3IN1Plus v1.30,2013-02-21 09:05:00,
2013-02-21 04:10:00,23.6,13.1,30.18,ENE,64,0.0,8.8,63,0.00,,,0.00,WX3IN1Plus v1.30,2013-02-21 09:10:00,
2013-02-21 04:15:00,23.7,13.1,30.18,NW,323,2.3,6.7,63,0.00,,,0.00,WX3IN1Plus v1.30,2013-02-21 09:15:00,
2013-02-21 04:20:00,23.7,13.1,30.19,WNW,299,0.0,2.4,63,0.00,,,0.00,WX3IN1Plus v1.30,2013-02-21 09:20:00,
2013-02-21 04:25:00,23.5,13.3,30.19,NNW,338,5.5,6.2,64,0.00,,,0.00,WX3IN1Plus v1.30,2013-02-21 09:25:00,
2013-02-21 04:30:00,23.4,13.3,30.19,NNE,29,3.3,6.4,64,0.00,,,0.00,WX3IN1Plus v1.30,2013-02-21 09:30:00,
2013-02-21 04:35:00,23.5,13.3,30.19,NNW,337,2.3,9.2,64,0.00,,,0.00,WX3IN1Plus v1.30,2013-02-21 09:35:00,
2013-02-21 04:40:00,23.4,13.3,30.19,WNW,298,1.5,11.4,64,0.00,,,0.00,WX3IN1Plus v1.30,2013-02-21 09:40:00,
2013-02-21 04:45:00,23.4,13.3,30.20,NNW,348,2.9,6.5,64,0.00,,,0.00,WX3IN1Plus v1.30,2013-02-21 09:45:00,
2013-02-21 04:50:00,23.6,13.3,30.20,NNW,333,2.6,9.0,64,0.00,,,0.00,WX3IN1Plus v1.30,2013-02-21 09:50:00,
2013-02-21 04:55:00,23.6,13.3,30.20,NW,312,4.1,8.5,64,0.00,,,0.00,WX3IN1Plus v1.30,2013-02-21 09:55:00,
2013-02-21 05:00:00,23.4,13.3,30.20,NNE,12,0.9,7.2,64,0.00,,,0.00,WX3IN1Plus v1.30,2013-02-21 10:00:00,
2013-02-21 05:05:00,23.4,13.3,30.20,NW,324,2.1,9.9,64,0.00,,,0.00,WX3IN1Plus v1.30,2013-02-21 10:05:00,
2013-02-21 05:10:00,23.5,13.3,30.20,NE,45,0.0,6.4,64,0.00,,,0.00,WX3IN1Plus v1.30,2013-02-21 10:10:00,
2013-02-21 05:15:00,23.5,13.3,30.20,North,7,0.0,7.3,64,0.00,,,0.00,WX3IN1Plus v1.30,2013-02-21 10:15:00,
2013-02-21 05:20:00,23.4,13.3,30.20,NNW,329,4.7,6.1,64,0.00,,,0.00,WX3IN1Plus v1.30,2013-02-21 10:20:00,
2013-02-21 05:25:00,23.4,13.3,30.20,NW,305,1.1,7.2,64,0.00,,,0.00,WX3IN1Plus v1.30,2013-02-21 10:25:00,
2013-02-21 05:30:00,23.6,13.3,30.20,NW,317,0.0,8.9,64,0.00,,,0.00,WX3IN1Plus v1.30,2013-02-21 10:30:00,
2013-02-21 05:35:00,23.6,13.3,30.20,NW,326,3.2,9.8,64,0.00,,,0.00,WX3IN1Plus v1.30,2013-02-21 10:35:00,
2013-02-21 05:40:00,23.4,13.3,30.20,WNW,286,3.9,11.1,64,0.00,,,0.00,WX3IN1Plus v1.30,2013-02-21 10:40:00,
2013-02-21 05:45:00,23.5,13.3,30.20,WNW,300,5.8,12.4,64,0.00,,,0.00,WX3IN1Plus v1.30,2013-02-21 10:45:00,
2013-02-21 05:50:00,23.5,13.3,30.20,North,350,0.0,7.2,64,0.00,,,0.00,WX3IN1Plus v1.30,2013-02-21 10:50:00,
2013-02-21 05:55:00,23.6,13.3,30.20,WNW,300,0.0,6.8,64,0.00,,,0.00,WX3IN1Plus v1.30,2013-02-21 10:55:00,
2013-02-21 06:00:00,23.6,13.3,30.20,NW,315,2.3,9.9,64,0.00,,,0.00,WX3IN1Plus v1.30,2013-02-21 11:00:00,
2013-02-21 06:05:00,23.5,13.3,30.20,West,281,1.3,9.3,64,0.00,,,0.00,WX3IN1Plus v1.30,2013-02-21 11:05:00,
2013-02-21 06:10:00,23.6,13.3,30.20,NNW,345,6.9,7.7,64,0.00,,,0.00,WX3IN1Plus v1.30,2013-02-21 11:10:00,
2013-02-21 06:15:00,23.6,13.3,30.20,NNW,338,2.9,8.1,64,0.00,,,0.00,WX3IN1Plus v1.30,2013-02-21 11:15:00,
2013-02-21 06:20:00,23.5,13.3,30.20,North,5,3.2,7.5,64,0.00,,,0.00,WX3IN1Plus v1.30,2013-02-21 11:20:00,
2013-02-21 06:25:00,23.4,13.3,30.20,NNW,331,1.6,6.0,64,0.00,,,0.00,WX3IN1Plus v1.30,2013-02-21 11:25:00,
2013-02-21 06:30:00,23.5,13.9,30.20,NW,320,0.0,8.5,65,0.00,,,0.00,WX3IN1Plus v1.30,2013-02-21 11:30:00,
2013-02-21 06:35:00,23.5,13.9,30.20,North,9,0.0,7.3,65,0.00,,,0.00,WX3IN1Plus v1.30,2013-02-21 11:35:00,
2013-02-21 06:40:00,23.4,13.9,30.20,North,351,4.2,5.5,65,0.00,,,0.00,WX3IN1Plus v1.30,2013-02-21 11:40:00,
2013-02-21 06:45:00,23.5,13.9,30.20,NNW,343,1.6,8.8,65,0.00,,,0.00,WX3IN1Plus v1.30,2013-02-21 11:45:00,
2013-02-21 06:50:00,23.4,13.9,30.20,North,0,0.9,7.4,65,0.00,,,0.00,WX3IN1Plus v1.30,2013-02-21 11:50:00,
2013-02-21 06:55:00,23.4,13.9,30.20,NNE,29,1.8,6.2,65,0.00,,,0.00,WX3IN1Plus v1.30,2013-02-21 11:55:00,
2013-02-21 07:00:00,23.6,13.9,30.20,NNW,340,1.3,6.4,65,0.00,,,0.00,WX3IN1Plus v1.30,2013-02-21 12:00:00,
2013-02-21 07:05:00,23.6,13.9,30.21,North,11,0.0,5.8,65,0.00,,,0.00,WX3IN1Plus v1.30,2013-02-21 12:05:00,
2013-02-21 07:10:00,23.6,13.9,30.21,NW,319,3.4,6.7,65,0.00,,,0.00,WX3IN1Plus v1.30,2013-02-21 12:10:00,
2013-02-21 07:15:00,23.8,14.0,30.21,NW,324,2.0,6.1,65,0.00,,,0.00,WX3IN1Plus v1.30,2013-02-21 12:15:00,
2013-02-21 07:20:00,23.7,13.9,30.21,NNW,344,1.2,6.4,65,0.00,,,0.00,WX3IN1Plus v1.30,2013-02-21 12:20:00,
2013-02-21 07:25:00,23.8,14.0,30.21,NNE,33,2.2,6.7,65,0.00,,,0.00,WX3IN1Plus v1.30,2013-02-21 12:25:00,
2013-02-21 07:30:00,24.1,14.6,30.21,NW,316,3.2,10.3,65,0.00,,,0.00,WX3IN1Plus v1.30,2013-02-21 12:30:00,
2013-02-21 07:35:00,24.0,14.2,30.22,North,350,5.0,10.2,65,0.00,,,0.00,WX3IN1Plus v1.30,2013-02-21 12:35:00,
2013-02-21 07:40:00,24.5,14.8,30.22,NNE,19,4.1,8.3,65,0.00,,,0.00,WX3IN1Plus v1.30,2013-02-21 12:40:00,
2013-02-21 07:45:00,24.5,14.2,30.22,NNE,14,3.1,7.2,64,0.00,,,0.00,WX3IN1Plus v1.30,2013-02-21 12:45:00,
2013-02-21 07:50:00,23.6,12.1,30.22,NW,307,2.2,13.4,60,0.00,,,0.00,WX3IN1Plus v1.30,2013-02-21 12:50:00,
2013-02-21 07:55:00,25.1,14.6,30.23,North,0,2.2,9.7,63,0.00,,,0.00,WX3IN1Plus v1.30,2013-02-21 12:55:00,
2013-02-21 08:00:00,25.3,14.2,30.22,ENE,74,1.6,13.9,62,0.00,,,0.00,WX3IN1Plus v1.30,2013-02-21 13:00:00,
2013-02-21 08:05:00,25.6,14.8,30.23,NE,47,5.2,10.5,62,0.00,,,0.00,WX3IN1Plus v1.30,2013-02-21 13:05:00,
2013-02-21 08:10:00,25.6,14.0,30.23,NNE,29,6.5,16.3,60,0.00,,,0.00,WX3IN1Plus v1.30,2013-02-21 13:10:00,
2013-02-21 08:15:00,26.0,14.2,30.23,North,4,3.1,12.3,60,0.00,,,0.00,WX3IN1Plus v1.30,2013-02-21 13:15:00,
2013-02-21 08:20:00,26.2,14.0,30.23,NNW,341,7.1,12.4,59,0.00,,,0.00,WX3IN1Plus v1.30,2013-02-21 13:20:00,
2013-02-21 08:25:00,26.3,14.0,30.23,North,358,7.7,15.5,58,0.00,,,0.00,WX3IN1Plus v1.30,2013-02-21 13:25:00,
2013-02-21 08:30:00,26.6,13.7,30.23,North,11,11.1,14.1,57,0.00,,,0.00,WX3IN1Plus v1.30,2013-02-21 13:30:00,
2013-02-21 08:35:00,26.7,13.3,30.24,NNW,330,7.7,18.3,56,0.00,,,0.00,WX3IN1Plus v1.30,2013-02-21 13:35:00,
2013-02-21 08:40:00,26.8,14.0,30.24,NW,322,8.2,19.2,57,0.00,,,0.00,WX3IN1Plus v1.30,2013-02-21 13:40:00,
2013-02-21 08:45:00,27.0,13.3,30.23,North,358,5.0,23.1,55,0.00,,,0.00,WX3IN1Plus v1.30,2013-02-21 13:45:00,
2013-02-21 08:50:00,27.1,13.9,30.24,North,358,5.3,14.4,56,0.00,,,0.00,WX3IN1Plus v1.30,2013-02-21 13:50:00,
2013-02-21 08:55:00,27.4,13.7,30.24,NNE,28,9.1,13.4,55,0.00,,,0.00,WX3IN1Plus v1.30,2013-02-21 13:55:00,
2013-02-21 09:00:00,27.7,14.0,30.24,NE,37,5.4,20.1,55,0.00,,,0.00,WX3IN1Plus v1.30,2013-02-21 14:00:00,
2013-02-21 09:06:00,27.8,14.0,30.24,NE,54,4.5,16.4,55,0.00,,,0.00,WX3IN1Plus v1.30,2013-02-21 14:06:00,
2013-02-21 09:11:00,28.0,14.0,30.24,North,358,7.2,17.5,55,0.00,,,0.00,WX3IN1Plus v1.30,2013-02-21 14:11:00,
2013-02-21 09:16:00,28.3,14.0,30.24,NNE,15,9.2,17.0,54,0.00,,,0.00,WX3IN1Plus v1.30,2013-02-21 14:16:00,
2013-02-21 09:21:00,28.4,14.0,30.24,NE,36,5.4,19.0,54,0.00,,,0.00,WX3IN1Plus v1.30,2013-02-21 14:21:00,
2013-02-21 09:26:00,28.6,14.2,30.24,NE,37,7.0,20.6,54,0.00,,,0.00,WX3IN1Plus v1.30,2013-02-21 14:26:00,
2013-02-21 09:31:00,28.8,14.2,30.25,WNW,285,11.9,13.3,53,0.00,,,0.00,WX3IN1Plus v1.30,2013-02-21 14:31:00,
2013-02-21 09:36:00,28.7,14.2,30.25,NNE,16,8.6,19.2,54,0.00,,,0.00,WX3IN1Plus v1.30,2013-02-21 14:36:00,
2013-02-21 09:41:00,28.8,14.6,30.25,NW,309,9.3,13.4,54,0.00,,,0.00,WX3IN1Plus v1.30,2013-02-21 14:41:00,
2013-02-21 09:46:00,29.1,14.6,30.25,North,11,6.4,11.4,53,0.00,,,0.00,WX3IN1Plus v1.30,2013-02-21 14:46:00,
2013-02-21 09:51:00,29.4,14.8,30.25,North,2,7.8,15.9,53,0.00,,,0.00,WX3IN1Plus v1.30,2013-02-21 14:51:00,
2013-02-21 09:56:00,29.4,14.2,30.25,WSW,251,7.5,14.5,52,0.00,,,0.00,WX3IN1Plus v1.30,2013-02-21 14:56:00,
2013-02-21 10:01:00,29.6,14.9,30.25,NNE,21,4.8,18.2,53,0.00,,,0.00,WX3IN1Plus v1.30,2013-02-21 15:01:00,
2013-02-21 10:06:00,29.8,14.8,30.25,NNE,29,7.7,17.2,52,0.00,,,0.00,WX3IN1Plus v1.30,2013-02-21 15:06:00,
2013-02-21 10:11:00,29.8,14.8,30.25,NNE,14,5.7,11.9,52,0.00,,,0.00,WX3IN1Plus v1.30,2013-02-21 15:11:00,
2013-02-21 10:16:00,29.9,14.8,30.26,North,11,12.5,14.9,52,0.00,,,0.00,WX3IN1Plus v1.30,2013-02-21 15:16:00,
2013-02-21 10:21:00,30.0,14.8,30.26,North,358,6.5,15.9,52,0.00,,,0.00,WX3IN1Plus v1.30,2013-02-21 15:21:00,
2013-02-21 10:26:00,30.1,14.9,30.26,NE,36,10.3,14.4,52,0.00,,,0.00,WX3IN1Plus v1.30,2013-02-21 15:26:00,
2013-02-21 10:31:00,30.2,14.9,30.26,NW,324,3.6,12.1,52,0.00,,,0.00,WX3IN1Plus v1.30,2013-02-21 15:31:00,
2013-02-21 10:36:00,30.4,15.8,30.27,NW,319,4.4,12.1,53,0.00,,,0.00,WX3IN1Plus v1.30,2013-02-21 15:36:00,
2013-02-21 10:41:00,30.8,15.7,30.27,NE,42,4.3,20.0,52,0.00,,,0.00,WX3IN1Plus v1.30,2013-02-21 15:41:00,
2013-02-21 10:46:00,31.0,15.5,30.26,NNE,18,6.5,19.2,51,0.00,,,0.00,WX3IN1Plus v1.30,2013-02-21 15:46:00,
2013-02-21 10:51:00,31.4,15.7,30.27,NW,306,9.6,11.4,51,0.00,,,0.00,WX3IN1Plus v1.30,2013-02-21 15:51:00,
2013-02-21 10:56:00,31.4,15.7,30.26,NNE,18,6.2,17.1,51,0.00,,,0.00,WX3IN1Plus v1.30,2013-02-21 15:56:00,
2013-02-21 11:01:00,31.7,16.2,30.26,NNW,343,7.6,18.3,51,0.00,,,0.00,WX3IN1Plus v1.30,2013-02-21 16:01:00,
2013-02-21 11:06:00,32.1,16.2,30.27,North,4,3.7,16.8,51,0.00,,,0.00,WX3IN1Plus v1.30,2013-02-21 16:06:00,
2013-02-21 11:11:00,32.6,15.7,30.25,North,357,8.2,16.0,49,0.00,,,0.00,WX3IN1Plus v1.30,2013-02-21 16:11:00,
2013-02-21 11:16:00,32.5,15.8,30.26,NW,322,1.6,14.5,50,0.00,,,0.00,WX3IN1Plus v1.30,2013-02-21 16:16:00,
2013-02-21 11:21:00,32.9,16.4,30.25,NNE,15,5.9,8.9,50,0.00,,,0.00,WX3IN1Plus v1.30,2013-02-21 16:21:00,
2013-02-21 11:26:00,33.1,16.2,30.25,SSW,203,1.9,16.0,49,0.00,,,0.00,WX3IN1Plus v1.30,2013-02-21 16:26:00,
2013-02-21 11:31:00,32.9,15.8,30.26,North,358,4.3,12.2,49,0.00,,,0.00,WX3IN1Plus v1.30,2013-02-21 16:31:00,
2013-02-21 11:36:00,32.7,15.7,30.25,NNW,338,7.1,17.3,49,0.00,,,0.00,WX3IN1Plus v1.30,2013-02-21 16:36:00,
2013-02-21 11:41:00,33.0,15.8,30.25,North,7,13.0,16.0,49,0.00,,,0.00,WX3IN1Plus v1.30,2013-02-21 16:41:00,
2013-02-21 11:46:00,33.2,16.2,30.25,North,358,2.9,15.6,49,0.00,,,0.00,WX3IN1Plus v1.30,2013-02-21 16:46:00,
2013-02-21 11:51:00,33.5,16.4,30.25,West,267,0.0,9.9,49,0.00,,,0.00,WX3IN1Plus v1.30,2013-02-21 16:51:00,
2013-02-21 11:56:00,34.0,16.7,30.25,NW,324,0.0,14.5,49,0.00,,,0.00,WX3IN1Plus v1.30,2013-02-21 16:56:00,
2013-02-21 12:01:00,34.3,16.6,30.25,NNW,334,4.7,8.8,48,0.00,,,0.00,WX3IN1Plus v1.30,2013-02-21 17:01:00,
2013-02-21 12:06:00,34.5,16.2,30.25,NNW,331,6.4,14.1,47,0.00,,,0.00,WX3IN1Plus v1.30,2013-02-21 17:06:00,
2013-02-21 12:11:00,34.1,16.4,30.25,NNW,344,9.4,13.1,48,0.00,,,0.00,WX3IN1Plus v1.30,2013-02-21 17:11:00,
2013-02-21 12:16:00,34.1,16.7,30.25,NNW,334,12.1,12.6,49,0.00,,,0.00,WX3IN1Plus v1.30,2013-02-21 17:16:00,
2013-02-21 12:21:00,34.3,16.6,30.25,NNE,12,1.3,14.3,48,0.00,,,0.00,WX3IN1Plus v1.30,2013-02-21 17:21:00,
2013-02-21 12:26:00,34.5,16.7,30.24,North,5,6.3,15.1,48,0.00,,,0.00,WX3IN1Plus v1.30,2013-02-21 17:26:00,
2013-02-21 12:31:00,34.9,16.6,30.25,NNW,334,4.9,12.6,47,0.00,,,0.00,WX3IN1Plus v1.30,2013-02-21 17:31:00,
2013-02-21 12:36:00,35.1,17.5,30.25,NNE,22,3.7,17.9,48,0.00,,,0.00,WX3IN1Plus v1.30,2013-02-21 17:36:00,
2013-02-21 12:41:00,35.5,17.8,30.25,North,350,6.8,11.0,48,0.00,,,0.00,WX3IN1Plus v1.30,2013-02-21 17:41:00,
2013-02-21 12:46:00,35.4,16.7,30.25,NNE,16,8.4,16.8,47,0.00,,,0.00,WX3IN1Plus v1.30,2013-02-21 17:46:00,
2013-02-21 12:51:00,35.5,17.8,30.25,NE,50,6.4,15.7,48,0.00,,,0.00,WX3IN1Plus v1.30,2013-02-21 17:51:00,
2013-02-21 12:56:00,35.6,18.0,30.25,NW,312,7.3,12.9,48,0.00,,,0.00,WX3IN1Plus v1.30,2013-02-21 17:56:00,
2013-02-21 13:01:00,35.7,16.7,30.24,West,278,4.7,13.7,46,0.00,,,0.00,WX3IN1Plus v1.30,2013-02-21 18:01:00,
2013-02-21 13:06:00,36.0,18.2,30.25,NW,317,6.2,16.0,48,0.00,,,0.00,WX3IN1Plus v1.30,2013-02-21 18:06:00,
2013-02-21 13:11:00,36.1,17.1,30.24,NNW,338,11.1,14.1,46,0.00,,,0.00,WX3IN1Plus v1.30,2013-02-21 18:11:00,
2013-02-21 13:16:00,36.1,17.1,30.24,North,350,4.1,13.3,46,0.00,,,0.00,WX3IN1Plus v1.30,2013-02-21 18:16:00,
2013-02-21 13:21:00,36.2,16.7,30.24,West,281,5.1,15.3,45,0.00,,,0.00,WX3IN1Plus v1.30,2013-02-21 18:21:00,
2013-02-21 13:26:00,36.3,16.7,30.24,NNE,30,7.6,14.2,45,0.00,,,0.00,WX3IN1Plus v1.30,2013-02-21 18:26:00,
2013-02-21 13:31:00,36.2,17.3,30.24,NNE,28,7.7,17.0,46,0.00,,,0.00,WX3IN1Plus v1.30,2013-02-21 18:31:00,
2013-02-21 13:36:00,35.8,17.1,30.24,North,1,4.7,16.4,46,0.00,,,0.00,WX3IN1Plus v1.30,2013-02-21 18:36:00,
2013-02-21 13:41:00,36.1,17.5,30.23,WNW,289,9.4,20.4,47,0.00,,,0.00,WX3IN1Plus v1.30,2013-02-21 18:41:00,
2013-02-21 13:46:00,36.3,17.3,30.23,NNW,331,4.9,14.6,46,0.00,,,0.00,WX3IN1Plus v1.30,2013-02-21 18:46:00,
2013-02-21 13:51:00,36.6,17.1,30.23,NNW,334,4.9,13.6,45,0.00,,,0.00,WX3IN1Plus v1.30,2013-02-21 18:51:00,
2013-02-21 13:56:00,36.5,17.5,30.23,NW,307,8.6,17.3,46,0.00,,,0.00,WX3IN1Plus v1.30,2013-02-21 18:56:00,
2013-02-21 14:01:00,36.6,18.0,30.23,North,357,9.0,14.3,47,0.00,,,0.00,WX3IN1Plus v1.30,2013-02-21 19:01:00,
2013-02-21 14:06:00,36.8,17.8,30.23,NNW,347,4.6,10.3,46,0.00,,,0.00,WX3IN1Plus v1.30,2013-02-21 19:06:00,
2013-02-21 14:11:00,36.8,17.8,30.23,NNW,343,7.3,10.6,46,0.00,,,0.00,WX3IN1Plus v1.30,2013-02-21 19:11:00,
2013-02-21 14:16:00,37.2,17.8,30.23,NNW,348,10.8,21.8,45,0.00,,,0.00,WX3IN1Plus v1.30,2013-02-21 19:16:00,
2013-02-21 14:21:00,37.2,18.2,30.23,NE,39,7.0,15.9,46,0.00,,,0.00,WX3IN1Plus v1.30,2013-02-21 19:21:00,
2013-02-21 14:26:00,37.1,17.8,30.23,NW,315,7.8,14.7,45,0.00,,,0.00,WX3IN1Plus v1.30,2013-02-21 19:26:00,
2013-02-21 14:31:00,36.9,18.0,30.23,North,1,1.8,9.2,46,0.00,,,0.00,WX3IN1Plus v1.30,2013-02-21 19:31:00,
2013-02-21 14:36:00,37.0,18.0,30.23,NW,316,3.5,15.6,46,0.00,,,0.00,WX3IN1Plus v1.30,2013-02-21 19:36:00,
2013-02-21 14:41:00,37.1,17.3,30.24,NW,323,9.6,18.0,44,0.00,,,0.00,WX3IN1Plus v1.30,2013-02-21 19:41:00,
2013-02-21 14:46:00,36.8,17.8,30.23,NE,45,6.0,19.8,46,0.00,,,0.00,WX3IN1Plus v1.30,2013-02-21 19:46:00,
2013-02-21 14:51:00,36.9,17.1,30.23,NW,326,6.0,13.7,44,0.00,,,0.00,WX3IN1Plus v1.30,2013-02-21 19:51:00,
2013-02-21 14:56:00,37.0,17.5,30.24,NNE,28,8.5,14.5,45,0.00,,,0.00,WX3IN1Plus v1.30,2013-02-21 19:56:00,
2013-02-21 15:01:00,37.0,18.0,30.23,NNW,343,9.0,16.8,46,0.00,,,0.00,WX3IN1Plus v1.30,2013-02-21 20:01:00,
2013-02-21 15:06:00,37.1,18.2,30.23,NNW,334,5.9,14.7,46,0.00,,,0.00,WX3IN1Plus v1.30,2013-02-21 20:06:00,
2013-02-21 15:11:00,37.3,18.2,30.23,North,0,7.3,14.7,46,0.00,,,0.00,WX3IN1Plus v1.30,2013-02-21 20:11:00,
2013-02-21 15:16:00,37.4,18.0,30.23,NNW,334,7.7,10.6,45,0.00,,,0.00,WX3IN1Plus v1.30,2013-02-21 20:16:00,
2013-02-21 15:21:00,37.4,17.5,30.23,NE,43,1.9,13.9,44,0.00,,,0.00,WX3IN1Plus v1.30,2013-02-21 20:21:00,
2013-02-21 15:26:00,37.8,18.2,30.23,North,7,4.9,13.9,45,0.00,,,0.00,WX3IN1Plus v1.30,2013-02-21 20:26:00,
2013-02-21 15:31:00,37.9,17.8,30.23,North,358,8.5,11.2,44,0.00,,,0.00,WX3IN1Plus v1.30,2013-02-21 20:31:00,
2013-02-21 15:36:00,37.8,18.2,30.23,NE,36,3.2,15.7,45,0.00,,,0.00,WX3IN1Plus v1.30,2013-02-21 20:36:00,
2013-02-21 15:41:00,37.8,18.2,30.23,North,11,11.6,14.0,45,0.00,,,0.00,WX3IN1Plus v1.30,2013-02-21 20:41:00,
2013-02-21 15:46:00,37.6,18.2,30.23,NE,40,5.5,13.9,45,0.00,,,0.00,WX3IN1Plus v1.30,2013-02-21 20:46:00,
2013-02-21 15:51:00,37.8,18.7,30.23,NE,50,7.5,12.8,46,0.00,,,0.00,WX3IN1Plus v1.30,2013-02-21 20:51:00,
2013-02-21 15:56:00,37.5,18.0,30.23,NW,324,7.0,14.0,45,0.00,,,0.00,WX3IN1Plus v1.30,2013-02-21 20:56:00,
2013-02-21 16:01:00,37.6,18.7,30.24,NNE,12,11.5,12.7,46,0.00,,,0.00,WX3IN1Plus v1.30,2013-02-21 21:01:00,
2013-02-21 16:06:00,37.5,18.4,30.24,NNW,330,6.5,17.0,46,0.00,,,0.00,WX3IN1Plus v1.30,2013-02-21 21:06:00,
2013-02-21 16:11:00,37.6,18.7,30.24,NNW,348,4.6,18.8,46,0.00,,,0.00,WX3IN1Plus v1.30,2013-02-21 21:11:00,
2013-02-21 16:16:00,37.8,18.2,30.24,NNW,343,3.4,14.8,45,0.00,,,0.00,WX3IN1Plus v1.30,2013-02-21 21:16:00,
2013-02-21 16:21:00,37.7,18.7,30.24,North,11,0.9,14.1,46,0.00,,,0.00,WX3IN1Plus v1.30,2013-02-21 21:21:00,
2013-02-21 16:26:00,37.7,18.7,30.24,NW,310,6.0,11.9,46,0.00,,,0.00,WX3IN1Plus v1.30,2013-02-21 21:26:00,
2013-02-21 16:31:00,37.6,18.7,30.23,WNW,302,6.4,13.8,46,0.00,,,0.00,WX3IN1Plus v1.30,2013-02-21 21:31:00,
2013-02-21 16:36:00,37.7,18.7,30.23,North,351,7.4,14.3,46,0.01,,,0.01,WX3IN1Plus v1.30,2013-02-21 21:36:00,
2013-02-21 16:41:00,37.1,18.7,30.23,North,7,7.3,20.5,47,0.01,,,0.00,WX3IN1Plus v1.30,2013-02-21 21:41:00,
2013-02-21 16:46:00,35.9,17.1,30.22,North,7,6.9,15.1,46,0.01,,,0.00,WX3IN1Plus v1.30,2013-02-21 21:46:00,
2013-02-21 16:51:00,36.5,18.7,30.24,North,2,6.2,10.7,48,0.01,,,0.00,WX3IN1Plus v1.30,2013-02-21 21:51:00,
2013-02-21 16:56:00,35.5,16.6,30.23,NNW,337,7.0,10.3,46,0.01,,,0.00,WX3IN1Plus v1.30,2013-02-21 21:56:00,
2013-02-21 17:01:00,36.4,18.7,30.24,NNW,333,1.9,9.9,48,0.01,,,0.00,WX3IN1Plus v1.30,2013-02-21 22:01:00,
2013-02-21 17:06:00,36.1,18.2,30.25,North,4,4.1,9.4,48,0.01,,,0.00,WX3IN1Plus v1.30,2013-02-21 22:06:00,
2013-02-21 17:11:00,35.3,16.7,30.24,NNE,22,7.9,12.7,47,0.01,,,0.00,WX3IN1Plus v1.30,2013-02-21 22:11:00,
2013-02-21 17:16:00,36.0,18.2,30.25,NNE,30,5.5,13.5,48,0.01,,,0.00,WX3IN1Plus v1.30,2013-02-21 22:16:00,
2013-02-21 17:21:00,34.9,16.6,30.25,NW,320,4.1,9.6,47,0.01,,,0.00,WX3IN1Plus v1.30,2013-02-21 22:21:00,
2013-02-21 17:26:00,35.6,18.4,30.27,North,2,2.7,11.8,49,0.01,,,0.00,WX3IN1Plus v1.30,2013-02-21 22:26:00,
2013-02-21 17:31:00,34.6,16.4,30.26,NNW,331,7.5,10.0,47,0.01,,,0.00,WX3IN1Plus v1.30,2013-02-21 22:31:00,
2013-02-21 17:36:00,35.4,18.0,30.27,NNW,347,0.0,11.1,49,0.00,,,0.00,WX3IN1Plus v1.30,2013-02-21 22:36:00,
2013-02-21 17:41:00,35.1,18.0,30.27,NNW,338,6.1,11.4,49,0.00,,,0.00,WX3IN1Plus v1.30,2013-02-21 22:41:00,
2013-02-21 17:46:00,24.2,8.3,30.28,NNW,340,0.0,8.1,49,0.00,,,0.00,WX3IN1Plus v1.30,2013-02-21 22:46:00,
2013-02-21 17:51:00,34.7,18.0,30.28,NNW,337,1.4,9.0,50,0.00,,,0.00,WX3IN1Plus v1.30,2013-02-21 22:51:00,
2013-02-21 17:56:00,20.1,4.7,30.28,NNE,28,0.0,8.7,50,0.00,,,0.00,WX3IN1Plus v1.30,2013-02-21 22:56:00,
2013-02-21 18:01:00,34.6,18.0,30.28,NNW,345,7.9,9.6,50,0.00,,,0.00,WX3IN1Plus v1.30,2013-02-21 23:01:00,
2013-02-21 18:06:00,34.5,13.1,30.28,NW,326,1.7,7.9,41,0.00,,,0.00,WX3IN1Plus v1.30,2013-02-21 23:06:00,
2013-02-21 18:11:00,34.2,17.5,30.29,NNE,30,5.0,7.1,50,0.00,,,0.00,WX3IN1Plus v1.30,2013-02-21 23:11:00,
2013-02-21 18:16:00,34.1,16.7,30.28,NE,46,2.7,8.3,49,0.00,,,0.00,WX3IN1Plus v1.30,2013-02-21 23:16:00,
2013-02-21 18:21:00,33.8,17.8,30.28,NE,37,2.0,3.6,51,0.00,,,0.00,WX3IN1Plus v1.30,2013-02-21 23:21:00,
2013-02-21 18:26:00,22.4,1.8,30.28,North,351,0.0,8.2,40,0.00,,,0.00,WX3IN1Plus v1.30,2013-02-21 23:26:00,
2013-02-21 18:31:00,33.7,17.5,30.29,NNW,337,0.0,9.7,51,0.00,,,0.00,WX3IN1Plus v1.30,2013-02-21 23:31:00,
2013-02-21 18:36:00,32.3,15.7,30.28,NNE,32,0.0,6.8,50,0.00,,,0.00,WX3IN1Plus v1.30,2013-02-21 23:36:00,
2013-02-21 18:41:00,33.4,17.3,30.30,North,5,0.0,5.0,51,0.00,,,0.00,WX3IN1Plus v1.30,2013-02-21 23:41:00,
2013-02-21 18:46:00,31.9,15.7,30.28,NNE,25,0.0,3.6,50,0.00,,,0.00,WX3IN1Plus v1.30,2013-02-21 23:46:00,
2013-02-21 18:51:00,33.3,18.2,30.30,NNE,25,0.0,0.0,53,0.00,,,0.00,WX3IN1Plus v1.30,2013-02-21 23:51:00,
2013-02-21 18:56:00,33.1,18.0,30.30,NNE,25,0.0,0.0,53,0.00,,,0.00,WX3IN1Plus v1.30,2013-02-21 23:56:00,
2013-02-21 19:01:00,32.8,17.8,30.31,NNE,25,0.0,0.0,54,0.00,,,0.00,WX3IN1Plus v1.30,2013-02-22 00:01:00,
2013-02-21 19:06:00,32.7,17.8,30.31,NNE,25,0.0,0.0,54,0.00,,,0.00,WX3IN1Plus v1.30,2013-02-22 00:06:00,
2013-02-21 19:11:00,32.5,18.0,30.31,NNE,28,0.0,3.2,55,0.00,,,0.00,WX3IN1Plus v1.30,2013-02-22 00:11:00,
2013-02-21 19:16:00,32.4,18.0,30.31,North,358,0.0,2.9,55,0.00,,,0.00,WX3IN1Plus v1.30,2013-02-22 00:16:00,
2013-02-21 19:21:00,32.3,17.8,30.31,North,358,0.0,0.0,55,0.00,,,0.00,WX3IN1Plus v1.30,2013-02-22 00:21:00,
2013-02-21 19:26:00,32.0,18.2,30.32,NW,324,0.0,5.0,56,0.00,,,0.00,WX3IN1Plus v1.30,2013-02-22 00:26:00,
2013-02-21 19:31:00,31.9,18.2,30.33,North,2,1.8,3.7,56,0.00,,,0.00,WX3IN1Plus v1.30,2013-02-22 00:31:00,
2013-02-21 19:36:00,30.9,16.4,30.31,NE,56,0.6,4.9,54,0.00,,,0.00,WX3IN1Plus v1.30,2013-02-22 00:36:00,
2013-02-21 19:41:00,31.9,18.2,30.32,NE,47,0.0,5.9,56,0.00,,,0.00,WX3IN1Plus v1.30,2013-02-22 00:41:00,
2013-02-21 19:46:00,30.8,16.4,30.31,North,5,1.1,5.7,54,0.00,,,0.00,WX3IN1Plus v1.30,2013-02-22 00:46:00,
2013-02-21 19:51:00,31.8,18.2,30.32,WNW,302,1.6,6.0,56,0.00,,,0.00,WX3IN1Plus v1.30,2013-02-22 00:51:00,
2013-02-21 19:56:00,30.9,16.4,30.31,NNW,338,0.0,4.1,54,0.00,,,0.00,WX3IN1Plus v1.30,2013-02-22 00:56:00,
2013-02-21 20:01:00,30.7,16.2,30.31,North,4,0.5,4.7,54,0.00,,,0.00,WX3IN1Plus v1.30,2013-02-22 01:01:00,
2013-02-21 20:06:00,31.5,18.4,30.32,NNE,16,0.0,6.4,57,0.00,,,0.00,WX3IN1Plus v1.30,2013-02-22 01:06:00,
2013-02-21 20:11:00,31.6,14.6,30.33,North,357,2.0,7.0,48,0.00,,,0.00,WX3IN1Plus v1.30,2013-02-22 01:11:00,
2013-02-21 20:16:00,31.5,12.4,30.31,North,352,2.6,6.5,44,0.00,,,0.00,WX3IN1Plus v1.30,2013-02-22 01:16:00,
2013-02-21 20:21:00,31.4,18.2,30.32,NNW,338,2.0,6.2,57,0.00,,,0.00,WX3IN1Plus v1.30,2013-02-22 01:21:00,
2013-02-21 20:26:00,31.0,18.0,30.30,NW,316,4.0,5.7,57,0.00,,,0.00,WX3IN1Plus v1.30,2013-02-22 01:26:00,
2013-02-21 20:31:00,31.5,18.4,30.33,North,11,0.5,5.8,57,0.00,,,0.00,WX3IN1Plus v1.30,2013-02-22 01:31:00,
2013-02-21 20:36:00,31.2,10.6,30.30,NNW,329,1.3,6.2,41,0.00,,,0.00,WX3IN1Plus v1.30,2013-02-22 01:36:00,
2013-02-21 20:41:00,31.3,18.2,30.33,North,4,0.0,4.2,57,0.00,,,0.00,WX3IN1Plus v1.30,2013-02-22 01:41:00,
2013-02-21 20:46:00,30.7,10.1,30.30,NNE,18,1.8,6.7,41,0.00,,,0.00,WX3IN1Plus v1.30,2013-02-22 01:46:00,
2013-02-21 20:51:00,31.0,18.0,30.33,North,352,3.2,8.0,57,0.00,,,0.00,WX3IN1Plus v1.30,2013-02-22 01:51:00,
2013-02-21 20:56:00,31.0,18.4,30.34,North,350,1.5,5.0,58,0.00,,,0.00,WX3IN1Plus v1.30,2013-02-22 01:56:00,
2013-02-21 21:01:00,30.6,18.0,30.31,North,9,0.0,5.8,58,0.00,,,0.00,WX3IN1Plus v1.30,2013-02-22 02:01:00,
2013-02-21 21:06:00,31.0,18.4,30.34,NW,306,0.0,5.8,58,0.00,,,0.00,WX3IN1Plus v1.30,2013-02-22 02:06:00,
2013-02-21 21:11:00,30.3,17.8,30.31,NNW,337,0.4,4.7,58,0.00,,,0.00,WX3IN1Plus v1.30,2013-02-22 02:11:00,
2013-02-21 21:16:00,30.8,18.2,30.35,NE,39,0.0,4.4,58,0.00,,,0.00,WX3IN1Plus v1.30,2013-02-22 02:16:00,
2013-02-21 21:21:00,29.9,4.5,30.31,NW,315,0.0,4.1,33,0.00,,,0.00,WX3IN1Plus v1.30,2013-02-22 02:21:00,
2013-02-21 21:26:00,30.6,18.0,30.35,North,8,3.0,3.1,58,0.00,,,0.00,WX3IN1Plus v1.30,2013-02-22 02:26:00,
2013-02-21 21:31:00,30.4,18.0,30.34,NE,35,2.3,6.4,58,0.00,,,0.00,WX3IN1Plus v1.30,2013-02-22 02:31:00,
2013-02-21 21:36:00,30.6,6.5,30.30,ENE,57,4.9,6.8,35,0.00,,,0.00,WX3IN1Plus v1.30,2013-02-22 02:36:00,
2013-02-21 21:41:00,30.5,18.2,30.33,NE,40,0.0,6.7,59,0.00,,,0.00,WX3IN1Plus v1.30,2013-02-22 02:41:00,
2013-02-21 21:46:00,30.4,18.2,30.33,North,8,4.1,5.1,59,0.00,,,0.00,WX3IN1Plus v1.30,2013-02-22 02:46:00,
2013-02-21 21:51:00,30.4,18.2,30.33,North,8,2.8,5.2,59,0.00,,,0.00,WX3IN1Plus v1.30,2013-02-22 02:51:00,
2013-02-21 21:56:00,30.3,18.0,30.33,North,7,2.5,5.6,59,0.00,,,0.00,WX3IN1Plus v1.30,2013-02-22 02:56:00,
2013-02-21 22:01:00,30.4,18.0,30.33,NE,46,0.0,3.2,58,0.00,,,0.00,WX3IN1Plus v1.30,2013-02-22 03:01:00,
2013-02-21 22:06:00,30.4,18.2,30.34,NNE,18,0.0,4.2,59,0.00,,,0.00,WX3IN1Plus v1.30,2013-02-22 03:06:00,
2013-02-21 22:11:00,30.3,18.0,30.34,NE,39,0.0,2.2,59,0.00,,,0.00,WX3IN1Plus v1.30,2013-02-22 03:11:00,
2013-02-21 22:16:00,30.5,18.2,30.34,NE,39,0.0,0.0,59,0.00,,,0.00,WX3IN1Plus v1.30,2013-02-22 03:16:00,
2013-02-21 22:21:00,30.2,17.8,30.35,NNE,21,0.0,5.0,59,0.00,,,0.00,WX3IN1Plus v1.30,2013-02-22 03:21:00,
2013-02-21 22:27:00,30.2,17.8,30.35,NNW,345,0.0,0.8,59,0.00,,,0.00,WX3IN1Plus v1.30,2013-02-22 03:27:00,
2013-02-21 22:32:00,30.2,17.8,30.35,NW,312,0.0,3.0,59,0.00,,,0.00,WX3IN1Plus v1.30,2013-02-22 03:32:00,
2013-02-21 22:37:00,29.9,17.5,30.36,NW,323,0.0,1.1,59,0.00,,,0.00,WX3IN1Plus v1.30,2013-02-22 03:37:00,
2013-02-21 22:42:00,29.9,18.0,30.35,North,0,2.5,4.6,60,0.00,,,0.00,WX3IN1Plus v1.30,2013-02-22 03:42:00,
2013-02-21 22:47:00,29.9,18.0,30.36,North,1,0.0,4.4,60,0.00,,,0.00,WX3IN1Plus v1.30,2013-02-22 03:47:00,
2013-02-21 22:52:00,29.7,18.0,30.36,North,1,0.0,0.0,60,0.00,,,0.00,WX3IN1Plus v1.30,2013-02-22 03:52:00,
2013-02-21 22:57:00,29.7,18.0,30.36,North,1,0.0,0.0,60,0.00,,,0.00,WX3IN1Plus v1.30,2013-02-22 03:57:00,
2013-02-21 23:02:00,29.4,17.5,30.36,North,1,0.0,0.0,60,0.00,,,0.00,WX3IN1Plus v1.30,2013-02-22 04:02:00,
2013-02-21 23:07:00,29.6,17.8,30.36,North,1,0.0,0.0,60,0.00,,,0.00,WX3IN1Plus v1.30,2013-02-22 04:07:00,
2013-02-21 23:12:00,29.4,18.0,30.36,North,7,0.0,2.0,61,0.00,,,0.00,WX3IN1Plus v1.30,2013-02-22 04:12:00,
2013-02-21 23:17:00,29.4,18.0,30.37,North,7,0.0,0.0,61,0.00,,,0.00,WX3IN1Plus v1.30,2013-02-22 04:17:00,
2013-02-21 23:22:00,29.3,18.0,30.37,North,7,0.0,0.0,61,0.00,,,0.00,WX3IN1Plus v1.30,2013-02-22 04:22:00,
2013-02-21 23:27:00,29.3,18.0,30.37,NNW,345,0.0,1.1,61,0.00,,,0.00,WX3IN1Plus v1.30,2013-02-22 04:27:00,
2013-02-21 23:32:00,29.4,18.0,30.36,NNE,18,0.0,4.6,61,0.00,,,0.00,WX3IN1Plus v1.30,2013-02-22 04:32:00,
2013-02-21 23:37:00,29.3,18.0,30.36,NNE,18,0.0,0.0,61,0.00,,,0.00,WX3IN1Plus v1.30,2013-02-22 04:37:00,
2013-02-21 23:42:00,29.3,18.0,30.37,NNE,18,0.0,0.0,61,0.00,,,0.00,WX3IN1Plus v1.30,2013-02-22 04:42:00,
2013-02-21 23:47:00,29.1,17.8,30.37,North,7,0.8,0.8,61,0.00,,,0.00,WX3IN1Plus v1.30,2013-02-22 04:47:00,
2013-02-21 23:52:00,29.3,18.0,30.36,NNE,29,0.0,2.3,61,0.00,,,0.00,WX3IN1Plus v1.30,2013-02-22 04:52:00,
2013-02-21 23:57:00,29.4,18.0,30.36,NE,49,0.0,1.8,61,0.00,,,0.00,WX3IN1Plus v1.30,2013-02-22 04:57:00,